Back to catalog

STARLINK-30258

AliveCommunicationsVLEO
NORAD 57608·PAYLOAD·🇺🇸 United States

Launched Aug 11, 2023 from Cape Canaveral Space Force Station

Loading…

Next Passes (next 24 hours)

TLE

FreshSource: CelesTrak SupGP

Epoch: Sep 14, 2026, 13:25 UTC

1 57608C 23119G   26257.55951389  .00016506  00000+0  59779-3 0  2573
2 57608  43.0026  95.3516 0001403 264.9472 206.0092 15.27572808    19

Track STARLINK-30258 in real time with AllMySat

Download on the App Store